Other Public Products
Issued by NWS Grand Forks, ND

Home | Current Version | Previous Version | Graphics & Text | Print | Product List | Glossary On
Versions: 1 2 3 4 5 6 7 8 9 10 11 12 13 14 15 16 17 18 19 20 21 22 23 24 25 26 27 28 29 30 31 32 33 34 35 36 37 38 39 40 41 42 43 44 45 46 47 48 49 50
000
FPUS83 KFGF 292110
OPUFGF
PRAIRIE TO PINES WEATHER ROUNDUP
NATIONAL WEATHER SERVICE EASTERN NORTH DAKOTA/GRAND FORKS ND
400 PM CDT FRI AUG 29 2014

 **SATELLITE DATA USED TO AUGMENT SKY COVER AT AUTOMATED STATIONS**
 *****  WEATHER ACROSS EASTERN NORTH DAKOTA  *****

CITY           SKY/WX    TMP DP  RH WIND       PRES   REMARKS
GRAND FORKS    CLOUDY    70  65  84 N18G28    29.76R
GRAND FORKS AF CLOUDY    66  66 100 N17G25    29.79R
GRAND CITY NWS   N/A     70 N/A N/A N7          N/A
BUXTON         NOT AVBL
DEVILS LAKE    CLOUDY    63  52  67 N18G24    29.86R
FARGO          CLOUDY    75  65  70 W9        29.75F
WAHPETON ARPT  CLOUDY    70  63  78 NW3       29.77S
$$

 *****  WEATHER ACROSS CENTRAL AND WESTERN NORTH DAKOTA  *****

CITY           SKY/WX    TMP DP  RH WIND       PRES   REMARKS
JAMESTOWN      CLOUDY    70  62  76 NW21G29   29.81R
BISMARCK       CLOUDY    70  58  65 N20       29.91S
MINOT          MOSUNNY   70  52  52 N16       29.93F
MINOT AFB      PTSUNNY   69  53  57 NE10      29.93F
GARRISON         N/A     68  54  60 N10G18    29.93S
WILLISTON      CLOUDY    72  48  42 N12       29.97F
DICKINSON      PTSUNNY   69  55  60 N13       29.97F
HETTINGER      MOSUNNY   70  55  59 N16G24    29.98S
$$

 *****  OTHER OBSERVATIONS NORTHEAST NORTH DAKOTA  *****

CITY           SKY/WX    TMP DP  RH WIND       PRES   REMARKS
WALHALLA         N/A     57  57 100 N15G23    29.88R
LANGDON        CLOUDY    57  55  94 NE18G25   29.88R
CAVALIER       CLOUDY    61  57  88 N17       29.84R FOG
GRAFTON        CLOUDY    63  57  82 N22G31    29.80R
CANDO          CLOUDY    59  55  88 N17G23    29.90R
FORT TOTTEN      N/A     62  56  82 N7        29.95
ROLLA          MOCLDY    63  55  77 N17G24    29.93S
RUGBY          MOCLDY    66  55  68 N13       29.91R
 ***** THE ABOVE OBSERVATIONS ARE NON NWS ARE NOT QUALITY
        CONTROLLED AND MAY MIS-REPORT RAIN FOR SNOW...
$$

 *****  OTHER OBSERVATIONS SOUTHEAST NORTH DAKOTA *****

CITY           SKY/WX    TMP DP  RH WIND       PRES   REMARKS
COOPERSTOWN    NOT AVBL
VALLEY CITY    CLOUDY    75  66  73 N13       29.77F
OAKES            N/A     75  66  73 NW14G20   29.78R
GWINNER        CLEAR     79  64  61 W6        29.77F
BUFFALO        NOT AVBL
WYNDMERE       NOT AVBL
 ***** THE ABOVE OBSERVATIONS ARE NON NWS ARE NOT QUALITY
       CONTROLLED AND MAY MIS-REPORT RAIN FOR SNOW...
$$

  *****  WEATHER ACROSS NORTHERN MINNESOTA  *****

CITY           SKY/WX    TMP DP  RH WIND       PRES   REMARKS
FLAG ISLAND    TSTM      63  61  94 NW8       29.75F
WARROAD        CLOUDY    66  63  88 W6        29.77F
ROSEAU         CLOUDY    64  61  88 NW5       29.77S
HALLOCK        MOSUNNY   64  61  88 N13G26    29.79R
THF RVR FALLS  CLOUDY    66  64  94 W8        29.77S
HALSTAD          N/A     74  64  72 CALM        N/A
FOSSTON        CLOUDY    68  63  83 W8        29.78S
BAUDETTE       CLOUDY    68  64  87 SW3       29.75F
WASKISH        CLOUDY    70  66  88 CALM      29.76S
CROOKSTON      DRIZZLE   70  64  83 CALM      29.77S
$$
  *****  WEATHER ACROSS CENTRAL AND WEST MINNESOTA  *****

CITY           SKY/WX    TMP DP  RH WIND       PRES   REMARKS
BEMIDJI        CLOUDY    69  64  84 CALM      29.77S
PARK RAPIDS    CLOUDY    71  65  81 W3        29.77S
WADENA         CLOUDY    70  64  83 CALM      29.76F
DETROIT LAKES  CLOUDY    70  64  83 W7        29.78F
MOORHEAD       PTSUNNY   73  70  88 CALM      29.76F
FERGUS FALLS   CLOUDY    72  66  83 N7        29.76S
ELBOW LAKE     CLOUDY    71  66  84 NW7       29.77S
MORRIS MN      MOSUNNY   77  66  69 CALM      29.75F
STAPLES        CLOUDY    70  64  83 W6        29.77S
WHEATON        MOSUNNY   72  64  78 N9        29.78R
$$
  *****  WEATHER ELSEWHERE ACROSS MINNESOTA  *****

CITY           SKY/WX    TMP DP  RH WIND       PRES   REMARKS
DULUTH         LGT RAIN  64  61  90 NE5       29.75F FOG
INTRNTL FALLS  CLOUDY    68  62  81 CALM      29.76S
ELY            CLOUDY    63  59  88 CALM      29.77F
CLOQUET        LGT RAIN  64  64 100 CALM      29.74F VSB 1
BRAINERD       CLOUDY    69  65  86 VRB3      29.76F
HIBBING        CLOUDY    66  61  84 CALM      29.78S
ALEXANDRIA     CLOUDY    72  66  81 CALM      29.78S
SAINT CLOUD    CLOUDY    73  66  78 CALM      29.74F
MINNEAPOLIS    PTSUNNY   77  70  79 N7        29.73F
$$

  *****  WEATHER ACROSS SOUTH DAKOTA  *****

CITY           SKY/WX    TMP DP  RH WIND       PRES   REMARKS
SIOUX FALLS    CLOUDY    66  63  90 S3        29.79R THUNDER
BROOKINGS      NOT AVBL
WATERTOWN      PTSUNNY   75  66  73 NW7       29.78S
HURON          SUNNY     80  66  62 NW6       29.77F
SISSETON         N/A     78  69  73 N8        29.75S
ABERDEEN       MOSUNNY   78  65  63 N10       29.78F
MITCHELL       MOSUNNY   80  68  66 NW7       29.78S
PIERRE         MOSUNNY   80  56  43 N21       29.85R
MOBRIDGE       MOSUNNY   73  60  63 N14       29.86R
RAPID CITY     MOSUNNY   78  53  41 NW13      29.99F
$$

  *****  SOME WEATHER IN NEARBY STATES *****

CITY           SKY/WX    TMP DP  RH WIND       PRES   REMARKS
GLASGOW MT     PTSUNNY   70  50  49 VRB5      29.98F
GREAT FALLS MT PTSUNNY   76  40  27 S7        29.91F
CHEYENNE WY    SUNNY     75  45  34 MISG      30.13F
SCOTTSBLUFF NE PTSUNNY   79  52  38 VRB3      30.01F
OMAHA NE       CLOUDY    74  69  85 S12       29.77F
DES MOINES IA  TSTM      77  71  82 S8        29.79R
DAVENPORT IA   MOSUNNY   86  72  62 S10       29.83F HX  92
CHICAGO IL     PTSUNNY   86  70  58 S16       29.89F HX  90
EAU CLAIRE WI  LGT RAIN  79  71  76 S5        29.74F
LA CROSSE WI   SUNNY     87  72  60 S12       29.74F HX  93
$$

  *****  SOME NATIONAL WEATHER *****

CITY           SKY/WX    TMP DP  RH WIND       PRES   REMARKS
LA GUARDIA NY  MOSUNNY   76  52  43 SE9       30.17R
RALEIGH NC     CLOUDY    82  71  69 NE8       30.12S
ATLANTA GA     MOSUNNY   89  57  33 CALM      30.05S
NEW ORLEANS LA LGT RAIN  80  75  84 E6        29.97R
OKLAHOMA CITY  PTSUNNY   82  66  58 S13       29.88F
ALBUQUERQUE NM MOSUNNY   83  40  21 W10       30.12F
SALT LAKE CITY MOSUNNY   88  38  17 S12       30.01F
LOS ANGELES CA MOSUNNY   76  63  64 W14       29.86F
BOISE ID       SUNNY     89  40  17 VRB6      29.89F
SEATTLE WA     CLOUDY    68  52  56 S8        30.01S
$$

*** WEATHER ACROSS MANITOBA...SASKATCHEWAN AND ONTARIO ***
                ***ONTARIO***

CITY           SKY/WX    TMP DP  RH WIND       PRES   REMARKS
GERALDTON      LGT RAIN  59  57  94 S8        29.84F FOG
THUNDER BAY    LGT RAIN  59  59 100 E5        29.80F FOG
SIOUX LOOKOUT  CLOUDY    66  63  88 S7        29.76S
TORONTO        PTSUNNY   72  50  46 SE7       30.13F
BIG TROUT LK   SUNNY     64  55  72 W5        29.76R
PICKLE LAKE    LGT RAIN  66  63  88 W5        29.74S FOG
DRYDEN         CLOUDY    66  63  88 S10       29.76S
KENORA         TSTM      63  61  94 N16G25    29.79S
$$
                *** MANITOBA***

CITY           SKY/WX    TMP DP  RH WIND       PRES   REMARKS
BRANDON        PTSUNNY   66  52  59 N9        29.93F
DAUPHIN        MOSUNNY   66  50  55 NE12G20   29.94S
ISLAND LAKE    PTSUNNY   61  50  67 NW10      29.85S
PILOT MOUND      N/A     63  54  72 N15         N/A
THE PAS        MOSUNNY   63  39  42 NW8G17    29.93F
THOMPSON       PTSUNNY   57  41  54 NW12      29.90S
WINNIPEG       PTSUNNY   63  54  72 N16G24    29.87R
LYNN LAKE      CLOUDY    55  36  47 MISG      29.91F
CHURCHILL      MOSUNNY   57  39  51 W21       29.72F
GILLAM         CLOUDY    55  43  62 NW17      29.84R
$$
                ***SASKATCHEWAN***

CITY           SKY/WX    TMP DP  RH WIND       PRES   REMARKS
ESTEVAN        PTSUNNY   68  46  45 N7        29.98S
KINDERSLEY     CLOUDY    70  45  40 S16       29.91F
LLOYDMINSTER   PTSUNNY   66  43  42 S13G22    29.87F
PRINCE ALBERT  MOSUNNY   64  43  45 CALM      29.96F
REGINA         SUNNY     66  43  42 NW6       29.98F
YORKTON        SUNNY     64  45  48 N6        29.97F



USA.gov is the U.S. government's official web portal to all federal, state and local government web resources and services.